Change the Weather History Date:

Wednesday, December 17, 2014

  Actual Average Record
Temperature  
Mean Temperature 22 °F 22 °F  
Max Temperature 25 °F 29 °F 54 °F (1939)
Min Temperature 18 °F 15 °F -13 °F (1972)
Degree Days  
Heating Degree Days 43 43  
Month to date heating degree days 610 679  
Since 1 July heating degree days 2294 2258  
Cooling Degree Days 0 0  
Month to date cooling degree days 0 0  
Year to date cooling degree days 620 568  
Moisture  
Dew Point 15 °F    
Average Humidity 71    
Maximum Humidity 80    
Minimum Humidity 62    
Precipitation  
Precipitation T in 0.06 in 0.44 in (1896)
Month to date precipitation 0.50 1.10  
Year to date precipitation 34.78 33.84  
Snow  
Snow T in 0.50 in 4.10 in (1963)
Month to date snowfall 0.1 7.5  
Since 1 July snowfall 8.6 11.6  
Snow Depth 0.00 in    
Sea Level Pressure  
Sea Level Pressure 30.26 in    
Wind  
Wind Speed 8 mph (NW)    
Max Wind Speed 16 mph    
Max Gust Speed 23 mph    
Visibility 10 miles    
Events Snow    
T = Trace of Precipitation, MM = Missing Value Source: NWS Daily Summary

Daily Weather History Graph

Daily Weather History Graph

Search for Another Location

Airport or City:

Trip Planner

Search our weather history database for the weather conditions in past years. The results will help you decide how hot, cold, wet, or windy it might be!

Date:

Astronomy

Dec. 17, 2014 Rise Set
Actual Time 7:23 AM CST 4:23 PM CST
Civil Twilight 6:51 AM CST 4:56 PM CST
Nautical Twilight 6:15 AM CST 5:31 PM CST
Astronomical Twilight 5:40 AM CST 6:06 PM CST
Moon 2:30 AM CST (12/17) 1:32 PM CST (12/17)
Length of Visible Light 10h 04m
Length of Day
8h 59m
Waning Crescent, 21% of the Moon is Illuminated
Dec 17
Waning Crescent
Dec 21
New
Dec 28
First Quarter
Jan 4
Full
Jan 13
Last Quarter

Hourly Weather History & Observations

Time (CST) Temp. Windchill Dew Point Humidity Pressure Visibility Wind Dir Wind Speed Gust Speed Precip Events Conditions
12:53 AM 24.1 °F 12.5 °F 17.1 °F 75% 30.19 in 10.0 mi NW 12.7 mph - N/A   Overcast
1:53 AM 24.1 °F 13.7 °F 16.0 °F 71% 30.20 in 10.0 mi WNW 10.4 mph 18.4 mph N/A   Overcast
2:53 AM 24.1 °F 14.4 °F 16.0 °F 71% 30.21 in 10.0 mi WNW 9.2 mph - N/A   Overcast
3:53 AM 24.1 °F 15.2 °F 16.0 °F 71% 30.21 in 10.0 mi WNW 8.1 mph - N/A   Overcast
4:01 AM 24.1 °F 16.0 °F 15.1 °F 69% 30.17 in 10.0 mi WNW 6.9 mph - N/A   Mostly Cloudy
4:14 AM 24.1 °F 15.2 °F 15.1 °F 69% 30.18 in 10.0 mi WNW 8.1 mph - N/A   Overcast
4:53 AM 24.1 °F 16.0 °F 16.0 °F 71% 30.22 in 10.0 mi WNW 6.9 mph - N/A   Overcast
5:53 AM 24.1 °F 14.4 °F 16.0 °F 71% 30.23 in 10.0 mi NW 9.2 mph - N/A   Overcast
6:53 AM 23.0 °F 12.4 °F 15.1 °F 72% 30.25 in 10.0 mi NW 10.4 mph - N/A   Overcast
7:53 AM 23.0 °F 13.9 °F 15.1 °F 72% 30.25 in 10.0 mi NW 8.1 mph - N/A   Overcast
8:53 AM 23.0 °F 11.7 °F 14.0 °F 68% 30.26 in 10.0 mi WNW 11.5 mph - N/A   Overcast
9:53 AM 23.0 °F 13.9 °F 15.1 °F 72% 30.28 in 10.0 mi West 8.1 mph - 0.00 in Snow Light Snow
10:53 AM 24.1 °F 14.4 °F 14.0 °F 65% 30.27 in 9.0 mi NW 9.2 mph - 0.00 in Snow Light Snow
11:53 AM 24.1 °F 14.4 °F 15.1 °F 69% 30.25 in 9.0 mi WNW 9.2 mph - 0.00 in Snow Light Snow
12:53 PM 25.0 °F 16.3 °F 15.1 °F 66% 30.25 in 10.0 mi West 8.1 mph - 0.00 in Snow Light Snow
1:53 PM 24.1 °F 16.0 °F 15.1 °F 69% 30.26 in 10.0 mi WNW 6.9 mph - 0.00 in   Overcast
2:53 PM 24.1 °F 15.2 °F 15.1 °F 69% 30.27 in 10.0 mi NW 8.1 mph - N/A   Overcast
3:45 PM 23.0 °F 13.9 °F 14.0 °F 68% 30.22 in 10.0 mi NW 8.1 mph - N/A   Scattered Clouds
3:53 PM 23.0 °F 13.9 °F 14.0 °F 68% 30.26 in 10.0 mi NW 8.1 mph - N/A   Scattered Clouds
4:53 PM 21.0 °F 16.2 °F 14.0 °F 74% 30.28 in 10.0 mi NW 3.5 mph - N/A   Partly Cloudy
5:38 PM 21.0 °F 14.6 °F 14.0 °F 74% 30.25 in 10.0 mi NW 4.6 mph - N/A   Mostly Cloudy
5:53 PM 21.9 °F 12.5 °F 14.0 °F 72% 30.30 in 10.0 mi NNW 8.1 mph - N/A   Overcast
6:53 PM 21.0 °F 10.6 °F 14.0 °F 74% 30.31 in 10.0 mi NNW 9.2 mph - N/A   Overcast
7:53 PM 21.0 °F 11.4 °F 14.0 °F 74% 30.31 in 10.0 mi NNW 8.1 mph - N/A   Overcast
8:25 PM 19.0 °F 12.3 °F 12.9 °F 77% 30.26 in 10.0 mi NNW 4.6 mph - N/A   Scattered Clouds
8:53 PM 19.0 °F 12.3 °F 12.9 °F 77% 30.32 in 10.0 mi NW 4.6 mph - N/A   Partly Cloudy
9:53 PM 18.0 °F 11.1 °F 12.9 °F 81% 30.31 in 10.0 mi NNW 4.6 mph - N/A   Clear
10:53 PM 18.0 °F 12.7 °F 12.0 °F 78% 30.32 in 10.0 mi NW 3.5 mph - N/A   Clear
11:53 PM 18.0 °F - 12.9 °F 81% 30.34 in 10.0 mi Calm Calm - N/A   Clear